Cape Girardeau, MO

6:53 AM CST on November 20, 2017 (GMT -0600)
Cape Girardeau Regional

Weather History for KCGI - April, 2012

Change the Weather History Date:

Sunday, April 22, 2012

  Actual Average Record
Temperature  
Mean Temperature 49 °F 59 °F  
Max Temperature 60 °F 71 °F 90 °F (1963)
Min Temperature 38 °F 48 °F 31 °F (2000)
Degree Days  
Heating Degree Days 16 7  
Month to date heating degree days 177 219  
Since 1 July heating degree days 3299 4275  
Cooling Degree Days 0 1  
Month to date cooling degree days 35 16  
Year to date cooling degree days 82 20  
Moisture  
Dew Point 41 °F    
Average Humidity 78    
Maximum Humidity 100    
Minimum Humidity 55    
Precipitation  
Precipitation 0.04 in 0.16 in 2.20 in (1973)
Month to date precipitation 1.19 3.07  
Year to date precipitation 9.18 14.35  
Sea Level Pressure  
Sea Level Pressure 29.96 in    
Wind  
Wind Speed 8 mph (NNW)    
Max Wind Speed 24 mph    
Max Gust Speed 29 mph    
Visibility 9 miles    
Events Rain    
T = Trace of Precipitation, MM = Missing Value Source: NWS Daily Summary

Daily Weather History Graph

Daily Weather History Graph

Search for Another Location

Airport or City:

Trip Planner

Search our weather history database for the weather conditions in past years. The results will help you decide how hot, cold, wet, or windy it might be!

Date:

Astronomy

Apr. 22, 2012 Rise Set
Actual Time 6:13 AM CDT 7:40 PM CDT
Civil Twilight 5:46 AM CDT 8:07 PM CDT
Nautical Twilight 5:13 AM CDT 8:40 PM CDT
Astronomical Twilight 4:39 AM CDT 9:15 PM CDT
Moon 6:47 AM CDT (4/22) 9:14 PM CDT (4/22)
Length of Visible Light 14h 21m
Length of Day
13h 26m
New Moon, 2% of the Moon is Illuminated
Apr 22
New Moon
Apr 29
First Quarter
May 5
Full
May 12
Last Quarter
May 20
New

Hourly Weather History & Observations

Time (CDT) Temp. Windchill Dew Point Humidity Pressure Visibility Wind Dir Wind Speed Gust Speed Precip Events Conditions
12:53 AM 41.0 °F 39.0 °F 39.0 °F 93% 29.97 in 8.0 mi WSW 3.5 mph - N/A   Clear
1:53 AM 39.9 °F - 39.0 °F 97% 29.96 in 8.0 mi Calm Calm - N/A   Clear
2:53 AM 39.9 °F - 39.0 °F 97% 29.93 in 7.0 mi Calm Calm - N/A   Clear
3:53 AM 39.9 °F - 39.0 °F 97% 29.93 in 5.0 mi Calm Calm - N/A   Mostly Cloudy
4:53 AM 44.1 °F 39.5 °F 42.1 °F 93% 29.90 in 6.0 mi South 8.1 mph - 0.00 in Rain Light Rain
5:53 AM 42.1 °F - 39.9 °F 92% 29.91 in 6.0 mi Calm Calm - 0.01 in   Partly Cloudy
6:53 AM 44.1 °F 42.5 °F 42.1 °F 93% 29.94 in 4.0 mi ENE 3.5 mph - 0.01 in Rain Light Rain
7:53 AM 46.0 °F 44.8 °F 44.1 °F 93% 29.93 in 7.0 mi SSW 3.5 mph - 0.00 in   Overcast
8:53 AM 48.9 °F - 44.1 °F 83% 29.92 in 10.0 mi Calm Calm - N/A   Overcast
9:53 AM - - - N/A% 29.92 in - North - - N/A   Unknown
10:53 AM 55.9 °F - 43.0 °F 62% 29.92 in 10.0 mi Variable 3.5 mph - N/A   Overcast
11:53 AM 57.9 °F - 44.1 °F 60% 29.93 in 10.0 mi North 6.9 mph - N/A   Overcast
12:53 PM 60.1 °F - 44.1 °F 55% 29.92 in 10.0 mi North 13.8 mph 19.6 mph 0.01 in   Overcast
1:53 PM 57.0 °F - 46.0 °F 67% 29.94 in 10.0 mi NNW 16.1 mph - N/A   Overcast
3:53 PM 50.0 °F - 44.1 °F 80% 29.97 in 8.0 mi North 17.3 mph 28.8 mph 0.01 in Rain Light Rain
4:53 PM 55.9 °F - 45.0 °F 67% 29.96 in 10.0 mi NNW 13.8 mph - 0.00 in   Partly Cloudy
5:53 PM 55.9 °F - 44.1 °F 64% 29.97 in 10.0 mi North 13.8 mph 20.7 mph N/A   Mostly Cloudy
6:53 PM 55.0 °F - 39.9 °F 57% 29.99 in 10.0 mi North 9.2 mph - N/A   Overcast
7:53 PM 53.1 °F - 39.9 °F 61% 30.01 in 10.0 mi NNW 9.2 mph - 0.00 in   Overcast
8:53 PM 52.0 °F - 39.9 °F 63% 30.03 in 10.0 mi NW 8.1 mph - N/A   Scattered Clouds
9:53 PM 51.1 °F - 37.9 °F 61% 30.05 in 10.0 mi NNW 12.7 mph - N/A   Clear
10:53 PM 48.0 °F - 37.0 °F 66% 30.06 in 10.0 mi NNW 9.2 mph - N/A   Clear
11:53 PM 46.0 °F 42.5 °F 35.1 °F 66% 30.07 in 10.0 mi North 6.9 mph - N/A   Clear